Date String (YYYY-MM-DD hh:mm:ss) UTC,Instrument flags,Ambient pressure (hPa),Sample flow (lpm),Bypass flow (lpm),Sample temperature (°C),Ambient temperature (°C),ASC tube jacket temperature (°C),LED temperature (°C),Box temperature (°C),Sample RH (%),Span deviation,Mass concentration (μg/m³),Mass concentration (μg/m³),Mass concentration (μg/m³)
DateTimeUTC,F1_M11,P_M11,Q1_M11,Q2_M11,T1_M11,T2_M11,T3_M11,T4_M11,T5_M11,U1_M11,ZSPAN_M11,X0_M11,X2_M11,X1_M11
2022-03-04 22:00:00,,0814.7,4.99,0.00,28.3,27.6,00.0,37.2,30.1,08.8,0002.3,0012.87,0005.91,0004.94
2022-03-04 22:01:00,,0814.4,5.00,0.00,28.3,27.6,00.0,37.2,30.1,08.8,0002.8,0013.70,0006.00,0005.02
2022-03-04 22:02:00,,0814.4,5.01,0.00,28.3,27.7,00.0,37.2,30.1,09.0,0002.9,0013.39,0005.95,0005.02
2022-03-04 22:03:00,,0814.4,4.98,0.00,28.3,27.7,00.0,37.2,30.1,08.7,0002.7,0013.51,0005.85,0004.97
2022-03-04 22:04:00,,0814.4,5.00,0.00,28.3,27.7,00.0,37.2,30.1,08.8,0001.9,0013.44,0005.73,0004.88
2022-03-04 22:05:00,,0814.4,5.01,0.00,28.3,27.7,00.0,37.2,30.1,08.8,0001.5,0012.88,0005.57,0004.78
2022-03-04 22:06:00,,0814.4,4.98,0.00,28.3,27.7,00.0,37.2,30.2,08.8,0002.1,0012.58,0005.46,0004.71
2022-03-04 22:07:00,,0814.4,5.01,0.00,28.3,27.7,00.0,37.2,30.2,08.7,0002.7,0013.38,0005.38,0004.64
2022-03-04 22:08:00,,0814.4,4.99,0.00,28.3,27.7,00.0,37.2,30.2,08.8,0000.7,0014.06,0005.34,0004.58
2022-03-04 22:09:00,,0814.4,5.00,0.00,28.4,27.7,00.0,37.2,30.2,08.6,0000.1,0014.90,0005.33,0004.56
2022-03-04 22:10:00,,0814.4,5.00,0.00,28.4,27.7,00.0,37.3,30.2,08.4,0000.9,0015.38,0005.28,0004.50
2022-03-04 22:11:00,,0814.4,4.99,0.00,28.4,27.8,00.0,37.3,30.2,08.5,0000.5,0015.99,0005.20,0004.44
2022-03-04 22:12:00,,0814.3,5.01,0.00,28.4,27.8,00.0,37.3,30.2,08.9,-000.1,0014.76,0005.15,0004.40
2022-03-04 22:13:00,,0814.3,4.98,0.00,28.4,27.8,00.0,37.3,30.2,08.9,0000.2,0015.06,0005.20,0004.40
2022-03-04 22:14:00,,0814.3,4.99,0.00,28.4,27.8,00.0,37.3,30.2,09.0,-000.8,0014.91,0005.24,0004.42
2022-03-04 22:15:00,,0814.2,5.02,0.00,28.4,27.8,00.0,37.3,30.2,09.1,-000.5,0014.63,0005.27,0004.44
2022-03-04 22:16:00,,0814.2,5.00,0.00,28.4,27.8,00.0,37.3,30.2,09.0,-000.7,0014.71,0005.31,0004.46
2022-03-04 22:17:00,,0814.1,4.99,0.00,28.4,27.8,00.0,37.3,30.2,09.0,-001.2,0015.00,0005.36,0004.49
2022-03-04 22:18:00,,0814.2,5.01,0.00,28.4,27.8,00.0,37.3,30.2,08.8,-000.5,0014.28,0005.38,0004.51
2022-03-04 22:19:00,,0814.1,5.00,0.00,28.4,27.8,00.0,37.3,30.2,08.9,0000.4,0013.98,0005.43,0004.54
2022-03-04 22:20:00,,0814.1,4.99,0.00,28.4,27.8,00.0,37.3,30.2,08.9,0001.5,0013.77,0005.48,0004.57
2022-03-04 22:21:00,,0814.1,5.02,0.00,28.4,27.8,00.0,37.4,30.2,09.3,0001.3,0014.68,0005.59,0004.60
2022-03-04 22:22:00,,0814.1,4.99,0.00,28.4,27.8,00.0,37.4,30.3,09.5,0001.5,0014.66,0005.68,0004.64
2022-03-04 22:23:00,,0814.1,4.99,0.00,28.5,27.8,00.0,37.4,30.3,09.4,0000.6,0014.88,0005.76,0004.68
2022-03-04 22:24:00,,0814.1,5.01,0.00,28.5,27.9,00.0,37.4,30.3,09.0,0000.2,0015.22,0005.74,0004.68
2022-03-04 22:25:00,,0814.1,5.00,0.00,28.5,27.9,00.0,37.4,30.3,08.9,0000.5,0015.08,0005.72,0004.69
2022-03-04 22:26:00,,0814.2,4.99,0.00,28.5,27.9,00.0,37.4,30.3,08.9,0000.4,0014.78,0005.71,0004.68
2022-03-04 22:27:00,,0814.1,4.99,0.00,28.5,27.9,00.0,37.4,30.3,09.1,0000.8,0014.70,0005.75,0004.70
2022-03-04 22:28:00,,0814.3,5.01,0.00,28.5,27.8,00.0,37.4,30.3,09.0,0001.1,0015.12,0005.80,0004.72
2022-03-04 22:29:00,,0814.0,4.99,0.00,28.5,27.8,00.0,37.4,30.3,08.8,0002.3,0015.31,0005.90,0004.76
2022-03-04 22:30:00,,0814.1,5.00,0.00,28.5,27.8,00.0,37.4,30.3,08.9,0001.7,0014.98,0005.94,0004.80
2022-03-04 22:31:00,,0814.1,5.01,0.00,28.5,27.9,00.0,37.4,30.3,09.0,0000.6,0014.50,0005.97,0004.83
2022-03-04 22:32:00,,0814.0,4.99,0.00,28.5,27.9,00.0,37.4,30.3,08.8,0001.7,0013.00,0005.91,0004.88
2022-03-04 22:33:00,,0814.0,5.00,0.00,28.5,27.9,00.0,37.4,30.3,08.9,0001.2,0012.53,0005.95,0004.92
2022-03-04 22:34:00,,0814.0,5.01,0.00,28.5,27.9,00.0,37.4,30.3,09.1,0002.2,0013.53,0006.01,0004.96
2022-03-04 22:35:00,,0814.1,4.99,0.00,28.5,27.9,00.0,37.4,30.3,09.3,0002.3,0013.74,0006.12,0005.01
2022-03-04 22:36:00,,0814.1,5.00,0.00,28.5,27.9,00.0,37.5,30.3,09.0,0001.7,0013.97,0006.18,0005.06
2022-03-04 22:37:00,,0814.2,5.01,0.00,28.5,27.9,00.0,37.5,30.3,09.1,0001.1,0014.32,0006.22,0005.11
2022-03-04 22:38:00,,0814.0,4.99,0.00,28.5,27.9,00.0,37.5,30.3,08.8,0001.5,0014.38,0006.29,0005.18
2022-03-04 22:39:00,,0814.1,5.00,0.00,28.5,27.9,00.0,37.5,30.3,08.8,0002.2,0013.69,0006.29,0005.22
2022-03-04 22:40:00,,0814.0,5.00,0.00,28.5,27.9,00.0,37.5,30.3,08.9,0000.9,0013.18,0006.23,0005.23
2022-03-04 22:41:00,,0814.0,4.99,0.00,28.5,27.9,00.0,37.5,30.3,08.8,0000.9,0013.56,0006.18,0005.21
2022-03-04 22:42:00,,0814.0,5.01,0.00,28.6,27.9,00.0,37.5,30.4,08.7,0000.8,0014.35,0006.13,0005.17
2022-03-04 22:43:00,,0813.9,4.99,0.00,28.6,27.9,00.0,37.5,30.3,08.5,0000.0,0014.69,0006.11,0005.14
2022-03-04 22:44:00,,0813.9,5.00,0.00,28.6,27.9,00.0,37.5,30.3,08.5,-000.5,0014.78,0006.11,0005.13
2022-03-04 22:45:00,,0814.0,5.00,0.00,28.6,28.0,00.0,37.5,30.4,08.6,-000.9,0014.76,0006.01,0005.08
2022-03-04 22:46:00,,0814.3,5.01,0.00,28.6,28.0,00.0,37.5,30.4,08.6,-001.2,0015.00,0005.94,0005.02
2022-03-04 22:47:00,,0814.1,4.99,0.00,28.6,28.0,00.0,37.5,30.4,08.5,-001.1,0014.86,0005.86,0004.94
2022-03-04 22:48:00,,0814.0,5.01,0.00,28.6,28.0,00.0,37.5,30.4,08.6,-000.4,0014.85,0005.79,0004.86
2022-03-04 22:49:00,,0814.1,4.99,0.00,28.6,28.0,00.0,37.5,30.4,08.7,-001.0,0014.86,0005.67,0004.75
2022-03-04 22:50:00,,0813.9,5.00,0.00,28.6,28.0,00.0,37.5,30.4,09.1,-000.8,0014.83,0005.58,0004.66
2022-03-04 22:51:00,,0813.9,4.99,0.00,28.6,28.0,00.0,37.5,30.4,08.9,-000.7,0014.79,0005.50,0004.58
2022-03-04 22:52:00,,0813.8,5.02,0.00,28.6,28.0,00.0,37.5,30.4,09.0,-000.8,0014.80,0005.50,0004.53
2022-03-04 22:53:00,,0813.8,5.00,0.00,28.6,28.0,00.0,37.6,30.5,09.2,-001.2,0015.07,0005.48,0004.50
2022-03-04 22:54:00,,0813.8,4.99,0.00,28.7,28.0,00.0,37.6,30.5,09.2,0000.2,0015.59,0005.43,0004.45
2022-03-04 22:55:00,,0813.7,5.00,0.00,28.7,28.0,00.0,37.6,30.4,09.2,0001.6,0016.19,0005.37,0004.41
2022-03-04 22:56:00,,0813.7,5.01,0.00,28.7,28.0,00.0,37.6,30.5,09.0,0002.3,0015.23,0005.36,0004.41
2022-03-04 22:57:00,,0813.6,4.99,0.00,28.7,28.0,00.0,37.6,30.5,09.0,0002.4,0014.63,0005.37,0004.43
2022-03-04 22:58:00,,0813.6,5.01,0.00,28.7,28.0,00.0,37.6,30.5,09.2,0002.3,0014.74,0005.46,0004.48
2022-03-04 22:59:00,,0813.7,5.00,0.00,28.7,28.0,00.0,37.6,30.5,09.3,0002.3,0014.65,0005.57,0004.55
